Location: Kerentrech
(47.7567°N, 3.3595°W)
Time: 20:19:03
(UTC+00:00)

Cosmos 1980 - Pass Details

Date: 17 February 2020
Orbit: 838 x 848 km, 71.0° (Epoch: 30 March)

Event Time Altitude Azimuth Distance (km) Brightness Sun altitude
Exits shadow 04:50:57 36° 329° (NNW) 1,326 4.5 -25.1°
Drops below altitude 10° 04:55:20 10° 16° (NNE) 2,482 6.4 -24.4°
Sets 04:57:59 0° 24° (NNE) 3,422 7.3 -24.0°
